Flag for Germany Weather past 2 weeks in Viernheim, Hesse, Germany

52 °F

Light rain. Partly sunny.

Feels Like: 48 °F
Forecast: 40 / 51 °F
Wind: 10 mph from Southwest

Location: Baden Wurttemberg - Neuostheim

Current Time: Dec 1, 2015 at 9:18:10 AM

Latest Report: Dec 1, 2015 at 8:50 AM

Visibility: N/A

Pressure: 30.24 "Hg

Humidity: 82%

Dew point: 46 °F

Location of ViernheimLocation

Historic Weather in Viernheim — Graph


Viernheim temperature yesterday

Maximum temperature yesterday: 54 °F (at 9:20 AM)
Minimum temperature yesterday: 50 °F (at 10:20 AM)
Average temperature yesterday: 52 °F

Past Weeks' High & Low Weather Summary

High61 °F (Nov 18, 5:50 AM)100% (Nov 20, 3:20 PM)30.30 "Hg (Nov 20, 3:20 PM)
Low27 °F (Nov 27, 6:20 AM)51% (Nov 16, 10:20 AM)29.42 "Hg (Nov 21, 11:50 AM)
Average45 °F82%29.98 "Hg
* Reported Nov 16 7:20 AM — Dec 1 7:50 AM, Viernheim, Weather by CustomWeather, © 2015

Note: Actual official high and low records may vary slightly from our data, if they occured in-between our weather recording intervals... More about our weather records


Viernheim weather history for previous 24 hours

Time TempWeatherWind HumidityBarometerVisibility
7:50 AM
Tue, Dec 1
52 °FLight rain. Partly cloudy.10 mph82%30.24 "HgN/A
7:20 AM50 °FLight rain. Passing clouds.9 mph94%30.21 "HgN/A
6:50 AM50 °FLight rain. Passing clouds.14 mph94%30.21 "HgN/A
6:20 AM52 °FLight rain. Passing clouds.14 mph82%30.21 "HgN/A
5:50 AM52 °FLight rain. Passing clouds.14 mph82%30.18 "HgN/A
9:20 PM
Mon, Nov 30
54 °FScattered showers. Mostly cloudy.18 mph67%30.07 "HgN/A
8:50 PM54 °FMostly cloudy.18 mph67%30.07 "HgN/A
8:20 PM54 °FMostly cloudy.16 mph67%30.07 "HgN/A
7:50 PM54 °FMostly cloudy.17 mph67%30.09 "HgN/A
7:20 PM54 °FMostly cloudy.15 mph72%30.09 "HgN/A
6:50 PM52 °FPassing clouds.13 mph77%30.09 "HgN/A
6:20 PM52 °FScattered showers. Passing clouds.12 mph77%30.12 "HgN/A
5:50 PM52 °FPassing clouds.14 mph77%30.12 "HgN/A
5:20 PM52 °FMostly cloudy.13 mph77%30.12 "HgN/A
4:50 PM54 °FMostly cloudy.14 mph67%30.12 "HgN/A
4:20 PM54 °FCloudy.14 mph72%30.12 "HgN/A
3:50 PM54 °FCloudy.15 mph72%30.12 "HgN/A
3:20 PM54 °FMostly cloudy.13 mph72%30.12 "HgN/A
2:50 PM52 °FMostly cloudy.14 mph77%30.12 "HgN/A
2:20 PM52 °FMostly cloudy.13 mph82%30.15 "HgN/A
1:50 PM52 °FLight rain. Mostly cloudy.14 mph82%30.15 "HgN/A
1:20 PM50 °FLight rain. Mostly cloudy.16 mph94%30.15 "HgN/A
12:50 PM50 °FLight rain. Partly sunny.13 mph94%30.18 "HgN/A
12:20 PM50 °FLight rain. Partly sunny.12 mph94%30.18 "HgN/A
11:50 AM50 °FLight rain. Mostly cloudy.10 mph94%30.18 "HgN/A
11:20 AM50 °FLight rain. Partly sunny.10 mph94%30.21 "HgN/A
10:50 AM50 °FLight rain. Overcast.8 mph88%30.21 "HgN/A
10:20 AM50 °FLight rain. Partly sunny.12 mph88%30.21 "HgN/A
9:50 AM52 °FLight rain. Partly sunny.10 mph77%30.21 "HgN/A
9:20 AM54 °FPartly sunny.13 mph72%30.18 "HgN/A
Weather by CustomWeather, © 2015

See weather overviewHow to use our weather pages